Weather History for KBEH - January, 2013

Change the Weather History Date:

Wednesday, January 23, 2013

  Actual Average Record
Temperature  
Mean Temperature 16 °F -  
Max Temperature 21 °F 35 °F 56 °F (1967)
Min Temperature 12 °F 20 °F -9 °F (2011)
Degree Days  
Heating Degree Days 48    
Moisture  
Dew Point 11 °F    
Average Humidity 76    
Maximum Humidity 88    
Minimum Humidity 57    
Precipitation  
Precipitation 0.03 in - - ()
Sea Level Pressure  
Sea Level Pressure 30.17 in    
Wind  
Wind Speed 12 mph (West)    
Max Wind Speed 21 mph    
Max Gust Speed 33 mph    
Visibility 2 miles    
Events Fog , Snow    
Averages and records for this station are not official NWS values.
T = Trace of Precipitation, MM = Missing Value Source: NWS Daily Summary

Daily Weather History Graph

Daily Weather History Graph

Search for Another Location

Airport or City:

Trip Planner

Search our weather history database for the weather conditions in past years. The results will help you decide how hot, cold, wet, or windy it might be!

Date:

Astronomy

Jan. 23, 2013 Rise Set
Actual Time 8:06 AM EST 5:49 PM EST
Civil Twilight 7:36 AM EST 6:19 PM EST
Nautical Twilight 7:02 AM EST 6:53 PM EST
Astronomical Twilight 6:29 AM EST 7:26 PM EST
Moon 2:58 PM EST (1/23) 5:18 AM EST (1/23)
Length of Visible Light 10h 43m
Length of Day
9h 42m
Waxing Gibbous, 89% of the Moon is Illuminated
Jan 23
Waxing Gibbous
Jan 26
Full
Feb 3
Last Quarter
Feb 10
New
Feb 17
First Quarter

Hourly Weather History & Observations

Time (EST) Temp. Windchill Dew Point Humidity Pressure Visibility Wind Dir Wind Speed Gust Speed Precip Events Conditions
12:41 AM 12.2 °F -2.5 °F 3.2 °F 67% 30.28 in 5.0 mi West 12.7 mph 19.6 mph 0.00 in Snow Light Snow
12:53 AM 12.9 °F -1.6 °F 3.9 °F 67% 30.33 in 4.0 mi West 12.7 mph - 0.00 in Snow Light Snow
1:38 AM 14.0 °F 0.5 °F 3.2 °F 62% 30.28 in 5.0 mi West 11.5 mph - 0.00 in Snow Light Snow
1:45 AM 14.0 °F 3.9 °F 5.0 °F 67% 30.27 in 5.0 mi WNW 6.9 mph 17.3 mph 0.00 in Snow Light Snow
1:53 AM 14.0 °F 0.5 °F 5.0 °F 67% 30.31 in 3.0 mi West 11.5 mph 18.4 mph 0.00 in Snow Light Snow
2:01 AM 14.0 °F 1.2 °F 5.0 °F 67% 30.27 in 5.0 mi WNW 10.4 mph - 0.00 in Snow Light Snow
2:16 AM 12.2 °F -1.0 °F 6.8 °F 79% 30.27 in 1.8 mi WNW 10.4 mph - 0.00 in Snow Light Snow
2:27 AM 14.0 °F -0.2 °F 6.8 °F 73% 30.27 in 3.0 mi West 12.7 mph - 0.00 in Snow Light Snow
2:53 AM 14.0 °F 2.9 °F 5.0 °F 67% 30.31 in 4.0 mi West 8.1 mph - 0.00 in Snow Light Snow
3:53 AM 14.0 °F 2.9 °F 6.1 °F 71% 30.31 in 4.0 mi WNW 8.1 mph - 0.00 in Snow Light Snow
4:45 AM 15.8 °F 4.2 °F 5.0 °F 62% 30.25 in 8.0 mi WNW 9.2 mph - 0.00 in   Overcast
4:53 AM 15.1 °F 3.3 °F 6.1 °F 68% 30.29 in 9.0 mi West 9.2 mph - 0.00 in   Overcast
5:12 AM 15.8 °F 5.1 °F 5.0 °F 62% 30.25 in 10.0 mi West 8.1 mph - N/A   Overcast
5:53 AM 15.1 °F 1.8 °F 7.0 °F 70% 30.29 in 8.0 mi West 11.5 mph - 0.00 in   Overcast
6:00 AM 15.8 °F 0.3 °F 6.8 °F 68% 30.24 in 6.0 mi West 16.1 mph - 0.00 in Snow Light Snow
6:41 AM 15.8 °F 5.1 °F 5.0 °F 62% 30.24 in 10.0 mi West 8.1 mph - 0.00 in   Overcast
6:53 AM 15.1 °F 1.1 °F 5.0 °F 64% 30.28 in 10.0 mi West 12.7 mph - 0.00 in   Overcast
7:14 AM 15.8 °F 2.1 °F 5.0 °F 62% 30.24 in 10.0 mi West 12.7 mph - N/A   Overcast
7:53 AM 15.1 °F 1.8 °F 5.0 °F 64% 30.28 in 10.0 mi West 11.5 mph - N/A   Overcast
8:53 AM 16.0 °F 3.6 °F 6.1 °F 65% 30.26 in 10.0 mi WSW 10.4 mph - N/A   Overcast
9:53 AM 12.9 °F 1.6 °F 3.9 °F 67% 30.26 in 10.0 mi South 8.1 mph - N/A   Overcast
10:27 AM 14.0 °F 2.0 °F 5.0 °F 67% 30.22 in 10.0 mi South 9.2 mph - N/A   Overcast
10:53 AM 14.0 °F 2.0 °F 6.1 °F 71% 30.27 in 6.0 mi South 9.2 mph - N/A   Haze
11:18 AM 14.0 °F 2.0 °F 6.8 °F 73% 30.23 in 2.0 mi South 9.2 mph - 0.00 in Snow Light Snow
11:31 AM 14.0 °F 3.9 °F 8.6 °F 79% 30.22 in 1.5 mi South 6.9 mph - 0.00 in Snow Light Snow
11:53 AM 15.1 °F 4.2 °F 9.0 °F 77% 30.25 in 1.5 mi SSW 8.1 mph - 0.00 in Snow Light Snow
12:07 PM 17.6 °F 5.0 °F 10.4 °F 73% 30.20 in 1.0 mi WSW 11.5 mph 18.4 mph 0.00 in Snow Light Snow
12:36 PM 17.6 °F 5.0 °F 12.2 °F 79% 30.18 in 0.8 mi WSW 11.5 mph - 0.00 in Snow Light Snow
12:43 PM 17.6 °F 3.2 °F 12.2 °F 79% 30.18 in 0.8 mi SW 15.0 mph - 0.00 in Snow Light Snow
12:53 PM 17.1 °F 3.0 °F 12.0 °F 81% 30.21 in 0.8 mi WSW 13.8 mph - 0.00 in Snow Light Snow
1:03 PM 17.6 °F 3.7 °F 12.2 °F 79% 30.17 in 0.8 mi WSW 13.8 mph 20.7 mph 0.00 in Snow Light Snow
1:11 PM 17.6 °F 5.7 °F 12.2 °F 79% 30.16 in 1.0 mi WSW 10.4 mph - 0.00 in Snow Light Snow
1:22 PM 17.6 °F 5.0 °F 12.2 °F 79% 30.16 in 0.8 mi SW 11.5 mph - 0.00 in Snow Light Snow
1:30 PM 17.6 °F 5.0 °F 12.2 °F 79% 30.15 in 0.5 mi SW 11.5 mph - 0.00 in Snow Snow
1:50 PM 15.8 °F 3.4 °F 12.2 °F 86% 30.14 in 0.2 mi SW 10.4 mph - 0.00 in Fog , Snow Heavy Snow
1:53 PM 16.0 °F 3.6 °F 12.0 °F 84% 30.17 in 0.2 mi SSW 10.4 mph - 0.00 in Fog , Snow Heavy Snow
2:13 PM 17.6 °F 3.2 °F 12.2 °F 79% 30.13 in 0.5 mi SW 15.0 mph - 0.00 in Fog , Snow Snow
2:21 PM 17.6 °F 4.3 °F 12.2 °F 79% 30.12 in 0.8 mi SW 12.7 mph - 0.00 in Snow Light Snow
2:30 PM 17.6 °F 4.3 °F 12.2 °F 79% 30.12 in 0.5 mi SW 12.7 mph - 0.00 in Fog , Snow Snow
2:53 PM 17.1 °F 4.3 °F 12.0 °F 81% 30.15 in 0.2 mi SSW 11.5 mph 19.6 mph 0.00 in Snow Heavy Snow
3:01 PM 17.6 °F 5.0 °F 12.2 °F 79% 30.11 in 0.2 mi SSW 11.5 mph - 0.00 in Snow Heavy Snow
3:24 PM 17.6 °F 5.7 °F 12.2 °F 79% 30.10 in 0.5 mi SSW 10.4 mph - 0.00 in Fog , Snow Snow
3:53 PM 17.1 °F 6.6 °F 12.9 °F 84% 30.13 in 0.5 mi SSW 8.1 mph - 0.00 in Fog , Snow Snow
4:19 PM 15.8 °F 6.1 °F 12.2 °F 86% 30.09 in 0.5 mi South 6.9 mph - 0.00 in Fog , Snow Snow
4:53 PM 17.1 °F 7.6 °F 12.9 °F 84% 30.11 in 0.5 mi South 6.9 mph - 0.01 in Fog , Snow Snow
5:53 PM 17.1 °F 4.3 °F 14.0 °F 88% 30.10 in 1.0 mi South 11.5 mph - 0.00 in Snow Light Snow
6:27 PM 17.6 °F 7.3 °F 14.0 °F 86% 30.06 in 1.8 mi SW 8.1 mph - 0.00 in Snow Light Snow
6:39 PM 17.6 °F 8.2 °F 14.0 °F 86% 30.06 in 1.8 mi SW 6.9 mph - 0.00 in Snow Light Snow
6:53 PM 21.0 °F 7.6 °F 17.1 °F 85% 30.10 in 1.2 mi West 15.0 mph 24.2 mph 0.00 in Snow Light Snow
7:06 PM 21.2 °F 6.4 °F 17.6 °F 86% 30.06 in 0.8 mi West 18.4 mph 28.8 mph 0.00 in Snow Light Snow
7:17 PM 21.2 °F 5.6 °F 17.6 °F 86% 30.06 in 0.8 mi West 20.7 mph 28.8 mph 0.00 in Snow Light Snow
7:33 PM 21.2 °F 6.4 °F 17.6 °F 86% 30.06 in 0.5 mi West 18.4 mph 29.9 mph 0.00 in Fog , Snow Snow
7:43 PM 21.2 °F 6.0 °F 17.6 °F 86% 30.06 in 0.5 mi WNW 19.6 mph 25.3 mph 0.00 in Fog , Snow Snow
7:50 PM 21.2 °F 8.9 °F 17.6 °F 86% 30.06 in 0.5 mi WNW 12.7 mph 27.6 mph 0.01 in Fog , Snow Snow
7:53 PM 21.0 °F 9.9 °F 17.1 °F 85% 30.10 in 0.8 mi WNW 10.4 mph 27.6 mph 0.01 in Snow Light Snow
7:56 PM 21.2 °F 6.4 °F 17.6 °F 86% 30.06 in 1.2 mi WNW 18.4 mph 25.3 mph 0.00 in Snow Light Snow
8:00 PM 21.2 °F 6.8 °F 15.8 °F 80% 30.06 in 2.0 mi WNW 17.3 mph 25.3 mph 0.00 in Snow Light Snow
8:10 PM 21.2 °F 7.3 °F 15.8 °F 80% 30.07 in 1.2 mi WNW 16.1 mph 28.8 mph 0.00 in Snow Light Snow
8:20 PM 21.2 °F 5.6 °F 15.8 °F 80% 30.07 in 0.8 mi WNW 20.7 mph 27.6 mph 0.00 in Snow Light Snow
8:35 PM 21.2 °F 6.8 °F 12.2 °F 68% 30.07 in 1.5 mi NW 17.3 mph 28.8 mph 0.00 in Snow Light Snow
8:44 PM 19.4 °F 6.6 °F 14.0 °F 80% 30.08 in 0.8 mi WNW 12.7 mph 27.6 mph 0.00 in Snow Light Snow
8:53 PM 19.9 °F 6.7 °F 16.0 °F 85% 30.11 in 0.5 mi NW 13.8 mph 23.0 mph 0.00 in Fog , Snow Snow
8:55 PM 19.4 °F 5.0 °F 15.8 °F 86% 30.08 in 1.0 mi NW 16.1 mph 33.4 mph 0.00 in Snow Light Snow
9:08 PM 19.4 °F 5.0 °F 14.0 °F 80% 30.10 in 0.8 mi WNW 16.1 mph 27.6 mph 0.00 in Snow Light Snow
9:13 PM 19.4 °F 5.0 °F 14.0 °F 80% 30.09 in 1.5 mi WNW 16.1 mph 26.5 mph 0.00 in Snow Light Snow
9:20 PM 19.4 °F 5.5 °F 14.0 °F 80% 30.10 in 0.8 mi NW 15.0 mph 29.9 mph 0.00 in Snow Light Snow
9:27 PM 19.4 °F 4.5 °F 15.8 °F 86% 30.10 in 0.2 mi NW 17.3 mph 29.9 mph 0.00 in Fog , Snow Snow
9:37 PM 19.4 °F 6.0 °F 15.8 °F 86% 30.10 in 0.5 mi NNW 13.8 mph 24.2 mph 0.00 in Fog , Snow Snow
9:49 PM 19.4 °F 6.6 °F 15.8 °F 86% 30.10 in 0.2 mi NW 12.7 mph 26.5 mph 0.00 in Fog , Snow Snow
9:53 PM 19.0 °F 4.5 °F 15.1 °F 85% 30.14 in 0.5 mi NW 16.1 mph 25.3 mph 0.00 in Fog , Snow Snow
10:01 PM 19.4 °F 8.6 °F 15.8 °F 86% 30.11 in 0.8 mi NNW 9.2 mph 25.3 mph 0.00 in Snow Light Snow
10:16 PM 19.4 °F 10.4 °F 15.8 °F 86% 30.12 in 0.5 mi NNW 6.9 mph 20.7 mph 0.01 in Fog , Snow Snow
10:32 PM 19.4 °F 8.6 °F 12.2 °F 74% 30.13 in 0.8 mi NNW 9.2 mph 26.5 mph 0.01 in Snow Light Snow
10:39 PM 19.4 °F 7.9 °F 12.2 °F 74% 30.14 in 1.2 mi NNW 10.4 mph 25.3 mph 0.01 in Snow Light Snow
10:50 PM 19.4 °F 6.0 °F 10.4 °F 68% 30.14 in 2.0 mi NNW 13.8 mph 28.8 mph 0.01 in Snow Light Snow
10:53 PM 19.0 °F 5.6 °F 10.9 °F 71% 30.18 in 2.5 mi NNW 13.8 mph 28.8 mph 0.01 in Snow Light Snow
10:58 PM 19.4 °F 5.5 °F 10.4 °F 68% 30.15 in 1.2 mi North 15.0 mph 26.5 mph 0.00 in Snow Light Snow
11:01 PM 17.6 °F 5.0 °F 12.2 °F 79% 30.15 in 0.5 mi North 11.5 mph 23.0 mph 0.00 in Snow Snow
11:08 PM 17.6 °F 7.3 °F 12.2 °F 79% 30.15 in 0.8 mi North 8.1 mph 23.0 mph 0.00 in Snow Light Snow
11:11 PM 19.4 °F 7.9 °F 12.2 °F 74% 30.16 in 1.5 mi NNW 10.4 mph 24.2 mph 0.00 in Snow Light Snow
11:16 PM 19.4 °F 6.0 °F 10.4 °F 68% 30.16 in 1.2 mi North 13.8 mph 24.2 mph 0.00 in Snow Light Snow
11:29 PM 17.6 °F 3.7 °F 12.2 °F 79% 30.17 in 0.8 mi North 13.8 mph 31.1 mph 0.00 in Snow Light Snow
11:34 PM 17.6 °F 4.3 °F 12.2 °F 79% 30.18 in 0.5 mi North 12.7 mph 31.1 mph 0.00 in Fog , Snow Snow
11:42 PM 17.6 °F 4.3 °F 10.4 °F 73% 30.18 in 1.0 mi NNW 12.7 mph 27.6 mph 0.00 in Snow Light Snow
11:46 PM 19.4 °F 9.5 °F 8.6 °F 63% 30.18 in 2.0 mi NNW 8.1 mph 25.3 mph 0.00 in Snow Light Snow
11:51 PM 19.4 °F 6.6 °F 6.8 °F 58% 30.18 in 4.0 mi NNW 12.7 mph 26.5 mph 0.00 in   Haze
11:53 PM 19.0 °F 6.8 °F 6.1 °F 57% 30.22 in 4.0 mi NNW 11.5 mph 26.5 mph 0.00 in   Haze